EW7966 Weather Reports


time (UTC)temp
C
wind
direction
speed
KPH
gust
KPH
rain 1hr
cm
rain 24hr
cm
rain mn
cm
humidity
%
barometer
mb
20260510191504 14 23 3.2 16.1 0.00 0.18 0.05 43 1023.4
20260510191005 14 265 11.3 16.1 0.00 0.18 0.05 45 1023.5
20260510190504 13 5 3.2 14.5 0.00 0.18 0.05 45 1023.5
20260510190006 13 58 6.4 17.7 0.00 0.18 0.05 44 1023.5
20260510190002 13 58 6.4 17.7 0.00 0.18 0.05 44 1016.0
20260510185503 13 28 9.7 17.7 0.00 0.18 0.05 47 1023.5
20260510185004 13 36 6.4 19.3 0.00 0.18 0.05 46 1023.6
20260510184504 13 64 8.0 17.7 0.00 0.18 0.05 49 1023.6
20260510184502 13 64 6.4 17.7 0.00 0.18 0.05 49 1016.0
20260510183504 13 127 1.6 4.8 0.00 0.18 0.05 45 1023.7
20260510183005 13 127 1.6 12.9 0.00 0.18 0.05 45 1023.7
20260510182504 13 75 1.6 12.9 0.00 0.18 0.05 47 1023.7
20260510182006 13 84 9.7 12.9 0.00 0.18 0.05 43 1023.7
20260510181507 13 26 3.2 12.9 0.00 0.18 0.05 44 1015.9
20260510181504 13 26 4.8 12.9 0.00 0.18 0.05 44 1023.7
20260510181004 12 14 6.4 14.5 0.00 0.18 0.05 48 1023.8
20260510180504 12 315 4.8 17.7 0.00 0.18 0.05 49 1023.9
20260510180004 12 328 9.7 17.7 0.00 0.18 0.05 49 1016.0
20260510175005 13 298 6.4 14.5 0.00 0.18 0.05 49 1023.9
20260510174502 13 290 3.2 9.7 0.00 0.18 0.05 51 1016.0
20260510174004 12 176 4.8 9.7 0.00 0.18 0.05 53 1023.9
20260510173504 12 277 3.2 9.7 0.00 0.18 0.05 54 1024.0
20260510173005 12 249 4.8 12.9 0.00 0.18 0.05 54 1024.0
20260510173002 12 249 4.8 12.9 0.00 0.18 0.05 54 1016.0
20260510172503 12 223 1.6 12.9 0.00 0.18 0.05 53 1024.0
20260510171504 12 194 1.6 6.4 0.00 0.18 0.05 57 1023.9
20260510171005 11 250 3.2 12.9 0.00 0.18 0.05 58 1024.1
20260510170503 11 300 4.8 12.9 0.00 0.18 0.05 64 1024.1
20260510170006 11 302 4.8 11.3 0.00 0.18 0.05 64 1024.0
20260510170003 11 302 3.2 11.3 0.00 0.18 0.05 64 1015.9
20260510165505 12 259 3.2 11.3 0.00 0.18 0.05 63 1024.1
20260510165005 12 150 3.2 16.1 0.00 0.18 0.05 67 1024.0
20260510164502 11 142 4.8 16.1 0.00 0.18 0.05 66 1015.8
20260510164005 11 245 8.0 12.9 0.00 0.18 0.05 66 1023.9
20260510163505 11 133 3.2 14.5 0.00 0.18 0.05 66 1023.9
20260510163002 11 213 6.4 17.7 0.00 0.18 0.05 68 1015.8
20260510162006 11 159 3.2 12.9 0.00 0.18 0.05 71 1024.0
20260510161503 10 215 8.0 14.5 0.00 0.18 0.05 69 1024.0
20260510161005 10 184 8.0 12.9 0.00 0.18 0.05 70 1024.0
20260510160504 10 204 6.4 9.7 0.00 0.18 0.05 71 1023.9
20260510160007 10 105 3.2 9.7 0.00 0.18 0.05 72 1023.9
20260510160002 10 105 1.6 9.7 0.00 0.18 0.05 72 1015.7
20260510155504 10 227 3.2 14.5 0.00 0.18 0.05 76 1023.9
20260510155010 9 250 6.4 14.5 0.00 0.18 0.05 75 1023.9
20260510154505 9 191 6.4 11.3 0.00 0.18 0.05 77 1023.9
20260510154502 9 191 4.8 11.3 0.00 0.18 0.05 77 1015.7
20260510154005 9 232 6.4 12.9 0.00 0.18 0.05 81 1023.9
20260510153504 8 217 3.2 11.3 0.00 0.18 0.05 83 1024.0
20260510153004 8 180 4.8 11.3 0.00 0.18 0.05 82 1015.7
20260510152005 8 160 4.8 9.7 0.00 0.18 0.05 83 1024.1
20260510151505 8 115 3.2 6.4 0.00 0.18 0.05 84 1024.2
20260510151502 8 115 3.2 6.4 0.00 0.18 0.05 84 1015.8
20260510150504 7 165 4.8 9.7 0.00 0.18 0.05 84 1024.3
20260510150002 7 165 4.8 9.7 0.00 0.18 0.05 88 1015.8
20260510145505 7 69 3.2 4.8 0.00 0.18 0.05 92 1024.3
20260510145006 6 69 3.2 8.0 0.00 0.18 0.05 94 1024.3
20260510144504 6 69 4.8 8.0 0.00 0.18 0.05 95 1024.2
20260510144502 6 69 3.2 8.0 0.00 0.18 0.05 95 1015.7
20260510144005 6 80 4.8 8.0 0.00 0.18 0.05 94 1024.2
20260510143505 6 26 3.2 8.0 0.00 0.18 0.05 94 1024.2
20260510143005 5 26 4.8 8.0 0.00 0.18 0.05 95 1024.2
20260510143002 5 26 3.2 8.0 0.00 0.18 0.05 95 1015.7
20260510142504 5 26 3.2 4.8 0.00 0.18 0.05 95 1024.2
20260510142005 5 26 3.2 6.4 0.00 0.18 0.05 95 1024.2
20260510141504 5 26 3.2 8.0 0.00 0.18 0.05 94 1024.1
20260510141502 5 26 1.6 8.0 0.00 0.18 0.05 94 1015.6
20260510140504 5 26 4.8 8.0 0.00 0.18 0.05 95 1024.1
20260510140006 5 26 3.2 6.4 0.00 0.18 0.05 95 1024.1
20260510140002 5 26 1.6 6.4 0.00 0.18 0.05 95 1015.6
20260510135504 5 26 3.2 6.4 0.00 0.18 0.05 95 1024.2
20260510135005 5 26 4.8 6.4 0.00 0.18 0.05 95 1024.0
20260510134502 5 26 0.0 8.0 0.00 0.18 0.05 95 1015.4
20260510134004 5 26 4.8 8.0 0.00 0.18 0.05 95 1024.0
20260510133503 5 26 3.2 9.7 0.00 0.18 0.05 95 1023.9
20260510133005 5 26 4.8 12.9 0.00 0.18 0.05 95 1023.9
20260510133002 5 26 4.8 12.9 0.00 0.18 0.05 95 1015.3
20260510132504 5 23 6.4 12.9 0.00 0.18 0.05 95 1024.0
20260510131505 5 25 6.4 9.7 0.00 0.18 0.05 94 1023.9
20260510131502 5 25 6.4 9.7 0.00 0.18 0.05 94 1015.3
20260510131005 5 42 6.4 9.7 0.00 0.18 0.05 94 1023.9
20260510130504 5 15 4.8 9.7 0.00 0.18 0.05 94 1023.8
20260510130007 5 15 6.4 9.7 0.00 0.18 0.05 95 1015.0
20260510125504 5 16 6.4 11.3 0.00 0.18 0.05 95 1023.7
20260510125005 5 96 1.6 4.8 0.00 0.18 0.05 95 1023.5
20260510124504 5 96 3.2 4.8 0.00 0.18 0.05 94 1023.3
20260510123005 5 96 1.6 3.2 0.00 0.18 0.05 95 1023.1
20260510123002 5 96 0.0 3.2 0.00 0.18 0.05 95 1014.4
20260510122505 5 96 0.0 1.6 0.00 0.18 0.05 95 1023.1
20260510122007 5 96 0.0 1.6 0.00 0.18 0.05 95 1023.1
20260510121507 5 96 0.0 3.2 0.00 0.18 0.05 95 1023.1
20260510121505 5 96 0.0 3.2 0.00 0.18 0.05 95 1014.2
20260510121006 5 96 0.0 3.2 0.00 0.18 0.05 95 1023.0
20260510120008 5 96 0.0 3.2 0.00 0.18 0.05 95 1023.1
20260510120005 5 96 0.0 3.2 0.00 0.18 0.05 95 1014.1
20260510115506 5 96 0.0 3.2 0.00 0.18 0.05 95 1023.0
20260510115005 5 96 1.6 4.8 0.00 0.18 0.05 95 1023.0
20260510114505 5 96 1.6 4.8 0.00 0.18 0.05 95 1014.2
20260510114005 5 96 1.6 4.8 0.00 0.18 0.05 95 1023.1
20260510113505 5 96 1.6 4.8 0.00 0.18 0.05 95 1023.1
20260510113006 5 96 3.2 4.8 0.00 0.18 0.05 95 1023.0
20260510113002 5 96 1.6 4.8 0.00 0.18 0.05 95 1014.1
20260510112504 5 96 0.0 4.8 0.00 0.18 0.05 95 1023.0
20260510112006 5 96 3.2 4.8 0.00 0.18 0.05 95 1023.1
20260510111507 5 96 1.6 4.8 0.00 0.18 0.05 95 1023.0
20260510111504 5 96 0.0 4.8 0.00 0.18 0.05 95 1014.1
20260510111005 5 96 3.2 6.4 0.00 0.18 0.05 95 1023.1
20260510110505 5 96 4.8 6.4 0.00 0.18 0.05 95 1023.0
20260510110008 5 96 1.6 6.4 0.00 0.18 0.05 96 1014.2
20260510110006 5 96 3.2 6.4 0.00 0.18 0.05 96 1023.1
20260510105507 5 96 4.8 6.4 0.00 0.18 0.05 95 1023.1
20260510105007 5 96 4.8 6.4 0.00 0.18 0.05 95 1022.9
20260510104505 5 96 4.8 9.7 0.00 0.18 0.05 95 1022.8
20260510104503 5 96 3.2 9.7 0.00 0.18 0.05 95 1013.9
20260510104006 5 96 6.4 9.7 0.00 0.18 0.05 95 1022.8
20260510103505 5 96 4.8 9.7 0.00 0.18 0.05 95 1022.8
20260510103008 5 96 4.8 9.7 0.00 0.18 0.05 96 1022.7
20260510103005 5 96 3.2 9.7 0.00 0.18 0.05 96 1013.8
20260510102006 5 96 8.0 12.9 0.00 0.18 0.05 96 1022.6
20260510101504 5 96 6.4 12.9 0.00 0.18 0.05 96 1013.6
20260510100007 5 62 6.4 9.7 0.00 0.18 0.05 95 1022.6
20260510100004 5 62 6.4 9.7 0.00 0.18 0.05 95 1013.6
20260510095506 5 62 6.4 9.7 0.00 0.18 0.05 95 1022.6
20260510095007 5 62 6.4 9.7 0.00 0.18 0.05 95 1022.6
20260510094517 5 67 6.4 11.3 0.00 0.18 0.05 95 1013.2
20260510094506 5 67 6.4 11.3 0.00 0.18 0.05 95 1022.3
20260510094006 5 56 6.4 11.3 0.00 0.18 0.05 95 1022.3
20260510093506 5 54 8.0 12.9 0.00 0.18 0.05 95 1022.3
20260510093006 5 48 3.2 6.4 0.00 0.18 0.05 95 1022.2
20260510093004 5 48 3.2 6.4 0.00 0.18 0.05 95 1013.1
20260510092505 5 48 4.8 6.4 0.00 0.18 0.05 95 1022.3
20260510091506 5 34 3.2 9.7 0.00 0.18 0.05 95 1022.3
20260510091006 5 26 6.4 9.7 0.00 0.18 0.05 95 1022.2
20260510090505 5 40 4.8 8.0 0.00 0.18 0.05 95 1022.3
20260510090008 5 40 1.6 6.4 0.00 0.18 0.05 95 1022.3
20260510090006 5 40 0.0 6.4 0.00 0.18 0.05 95 1013.1
20260510085505 5 40 3.2 6.4 0.00 0.18 0.05 95 1022.4
20260510084505 5 40 1.6 8.0 0.00 0.18 0.05 95 1022.4
20260510083505 5 40 4.8 8.0 0.00 0.18 0.05 95 1022.2
20260510083004 5 40 4.8 9.7 0.00 0.18 0.05 95 1012.9
20260510082506 5 40 6.4 9.7 0.00 0.18 0.05 95 1022.2
20260510082006 5 40 4.8 6.4 0.00 0.18 0.05 95 1022.3
20260510081505 5 40 4.8 9.7 0.00 0.18 0.05 95 1022.2
20260510081503 5 40 3.2 9.7 0.00 0.18 0.05 95 1012.8
20260510081005 5 40 4.8 9.7 0.00 0.18 0.05 95 1022.1
20260510080506 5 26 3.2 9.7 0.00 0.18 0.05 95 1022.1
20260510080006 5 30 3.2 9.7 0.00 0.18 0.05 94 1012.7
20260510075507 5 5 1.6 8.0 0.03 0.18 0.05 94 1022.0
20260510075005 5 5 3.2 6.4 0.03 0.18 0.05 94 1022.0
20260510074506 5 5 1.6 9.7 0.03 0.18 0.05 94 1022.0
20260510074504 5 5 1.6 9.7 0.03 0.18 0.05 94 1012.5
20260510074005 5 32 3.2 9.7 0.03 0.18 0.05 94 1021.9
20260510073505 5 9 3.2 14.5 0.03 0.18 0.05 94 1022.0
20260510073006 5 16 6.4 14.5 0.05 0.18 0.05 94 1021.9
20260510073004 5 16 4.8 14.5 0.05 0.18 0.05 94 1012.4
20260510072505 5 19 6.4 12.9 0.05 0.18 0.05 94 1022.1
20260510072006 5 16 1.6 6.4 0.05 0.18 0.05 94 1022.2
20260510071506 5 325 1.6 6.4 0.05 0.18 0.05 94 1022.3
20260510071503 5 325 1.6 6.4 0.05 0.18 0.05 94 1012.7
20260510071006 5 325 1.6 8.0 0.05 0.18 0.05 94 1022.2
20260510070505 5 19 4.8 14.5 0.05 0.18 0.05 93 1022.3
20260510070007 5 314 4.8 14.5 0.05 0.18 0.05 93 1022.3
20260510065505 5 13 4.8 14.5 0.03 0.15 0.03 93 1022.0
20260510065007 5 340 3.2 12.9 0.03 0.15 0.03 93 1022.2
20260510064505 5 360 3.2 12.9 0.03 0.15 0.03 92 1012.6
20260510064006 5 360 4.8 12.9 0.03 0.15 0.03 92 1022.2
20260510063505 5 315 4.8 14.5 0.03 0.15 0.03 92 1022.4
20260510063004 5 355 6.4 14.5 0.00 0.13 0.00 92 1012.9
20260510062506 5 311 6.4 14.5 0.00 0.13 0.00 91 1022.6
20260510062007 5 344 4.8 14.5 0.00 0.13 0.00 91 1022.5
20260510061506 6 339 4.8 14.5 0.00 0.13 0.00 91 1022.3
20260510061504 6 339 4.8 14.5 0.00 0.13 0.00 91 1012.5
20260510061006 6 329 4.8 14.5 0.00 0.13 0.00 91 1022.2
20260510060502 6 334 6.4 16.1 0.00 0.13 0.00 91 1022.3
20260510060008 6 317 6.4 16.1 0.00 0.13 0.00 91 1022.1
20260510060003 6 317 6.4 16.1 0.00 0.13 0.00 91 1012.2
20260510055505 6 360 6.4 14.5 0.00 0.13 0.13 90 1022.0
20260510054506 6 312 11.3 19.3 0.00 0.13 0.13 89 1021.9
20260510054503 6 312 11.3 19.3 0.00 0.13 0.13 89 1012.0
20260510053505 6 324 6.4 20.9 0.00 0.13 0.13 90 1021.9
20260510053004 6 343 9.7 20.9 0.00 0.13 0.13 90 1012.0
20260510052505 6 331 8.0 22.5 0.00 0.13 0.13 91 1021.8
20260510052007 6 355 8.0 25.7 0.00 0.13 0.13 91 1021.6
20260510051505 6 355 8.0 25.7 0.00 0.13 0.13 91 1021.1
20260510051006 6 18 16.1 25.7 0.00 0.13 0.13 91 1020.9
20260510050505 6 26 17.7 24.1 0.00 0.13 0.13 90 1021.1
20260510050009 6 31 11.3 20.9 0.00 0.13 0.13 90 1021.3
20260510050006 6 31 9.7 20.9 0.00 0.13 0.13 90 1011.4
20260510045505 6 355 9.7 20.9 0.00 0.13 0.13 90 1021.5
20260510045005 6 355 11.3 25.7 0.00 0.13 0.13 90 1021.3
20260510044505 6 16 16.1 29.0 0.00 0.13 0.13 90 1021.0
20260510044503 6 16 16.1 29.0 0.00 0.13 0.13 90 1011.0
20260510044006 6 19 17.7 29.0 0.00 0.13 0.13 90 1021.3
20260510043005 6 25 11.3 25.7 0.00 0.13 0.13 90 1011.6
20260510042505 6 5 11.3 24.1 0.00 0.13 0.13 90 1021.9
20260510042006 6 11 11.3 19.3 0.00 0.13 0.13 90 1022.4
20260510041510 6 340 8.0 20.9 0.00 0.13 0.13 90 1012.5
20260510041005 6 355 8.0 17.7 0.00 0.13 0.13 90 1022.2
20260510040505 6 322 8.0 14.5 0.00 0.13 0.13 90 1022.0
20260510040007 6 342 6.4 16.1 0.00 0.13 0.13 89 1021.8
20260510040004 6 342 4.8 16.1 0.00 0.13 0.13 89 1011.9
20260510035506 7 339 6.4 29.0 0.00 0.13 0.13 89 1021.6
20260510035006 7 5 8.0 29.0 0.00 0.13 0.13 87 1021.4
20260510034505 7 339 6.4 16.1 0.00 0.13 0.13 88 1021.3
20260510034503 7 339 4.8 16.1 0.00 0.13 0.13 88 1011.3
20260510034006 7 355 8.0 16.1 0.00 0.13 0.13 87 1021.1
20260510033505 7 333 6.4 16.1 0.00 0.13 0.13 86 1020.9
20260510033004 7 15 6.4 16.1 0.00 0.13 0.13 86 1010.8
20260510032506 7 336 4.8 17.7 0.05 0.13 0.13 85 1020.7
20260510032008 7 355 4.8 30.6 0.10 0.13 0.13 84 1020.4
20260510031504 7 44 14.5 40.2 0.13 0.13 0.13 83 1010.2
20260510031005 7 355 17.7 40.2 0.13 0.13 0.13 82 1020.2
20260510030007 7 337 12.9 25.7 0.13 0.13 0.13 81 1019.8
20260510030004 7 337 11.3 25.7 0.13 0.13 0.13 81 1009.7
20260510025506 7 355 9.7 22.5 0.13 0.13 0.13 81 1019.3
20260510024505 8 346 8.0 22.5 0.13 0.13 0.13 81 1019.0
20260510024007 8 329 8.0 22.5 0.13 0.13 0.13 81 1018.8
20260510023506 8 341 8.0 38.6 0.13 0.13 0.13 80 1018.3
20260510023007 8 338 9.7 41.8 0.13 0.13 0.13 76 1018.1
20260510023003 8 338 8.0 41.8 0.13 0.13 0.13 76 1007.9
20260510022505 9 9 12.9 33.8 0.05 0.05 0.05 73 1017.5
20260510022005 11 336 19.3 33.8 0.00 0.00 0.00 67 1017.0
20260510021505 12 321 9.7 35.4 0.00 0.00 0.00 56 1016.9
20260510021503 12 321 9.7 35.4 0.00 0.00 0.00 56 1006.7
20260510020500 13 319 16.1 43.5 0.00 0.00 0.00 51 1015.9
20260510020007 13 61 1.6 3.2 0.00 0.00 0.00 50 1015.1
20260510020004 13 61 0.0 3.2 0.00 0.00 0.00 50 1004.8
20260510015505 14 98 0.0 3.2 0.00 0.00 0.00 49 1014.6
20260510015006 14 98 1.6 4.8 0.00 0.00 0.00 48 1014.5
20260510014505 15 98 3.2 6.4 0.00 0.00 0.00 47 1014.5
20260510014503 15 98 1.6 6.4 0.00 0.00 0.00 47 1004.2
20260510014005 15 98 4.8 6.4 0.00 0.00 0.00 46 1014.4
20260510013506 15 98 4.8 6.4 0.00 0.00 0.00 45 1014.4
20260510013010 15 98 4.8 6.4 0.00 0.00 0.00 44 1004.0
20260510012007 15 94 4.8 9.7 0.00 0.00 0.00 43 1014.2
20260510011511 16 80 3.2 12.9 0.00 0.00 0.00 42 1004.0
20260510011505 16 80 4.8 12.9 0.00 0.00 0.00 42 1014.2
20260510011006 16 83 4.8 12.9 0.00 0.00 0.00 41 1014.1
20260510010505 16 88 8.0 14.5 0.00 0.00 0.00 40 1014.0
20260510010010 16 83 9.7 17.7 0.00 0.00 0.00 39 1003.6
20260510010006 16 83 9.7 17.7 0.00 0.00 0.00 39 1013.8
20260510005459 16 103 11.3 17.7 0.00 0.00 0.00 38 1013.7
20260510005005 17 91 12.9 17.7 0.00 0.00 0.00 36 1013.6
20260510004505 17 72 6.4 12.9 0.00 0.00 0.00 35 1003.4
20260510004007 17 61 6.4 11.3 0.00 0.00 0.00 33 1013.4
20260510003505 17 56 6.4 11.3 0.00 0.00 0.00 33 1013.4
20260510003006 17 59 6.4 9.7 0.00 0.00 0.00 32 1013.3
20260510002505 17 57 6.4 9.7 0.00 0.00 0.00 32 1013.2
20260510002006 18 69 8.0 9.7 0.00 0.00 0.00 30 1013.2
20260510001506 18 15 4.8 6.4 0.00 0.00 0.00 30 1013.3
20260510001005 18 15 1.6 4.8 0.00 0.00 0.00 30 1013.3
20260510000505 18 15 1.6 6.4 0.00 0.00 0.00 27 1013.3
20260510000004 18 15 0.0 8.0 0.00 0.00 0.00 28 1003.3
20260509235504 18 114 3.2 6.4 0.00 0.00 0.00 29 1013.3
20260509234505 18 114 0.0 14.5 0.00 0.00 0.00 28 1013.3
20260509234503 18 114 0.0 14.5 0.00 0.00 0.00 28 1003.4
20260509233505 18 28 0.0 4.8 0.00 0.00 0.00 29 1013.3
20260509233006 18 28 1.6 8.0 0.00 0.00 0.00 29 1013.3
20260509233004 18 28 1.6 8.0 0.00 0.00 0.00 29 1003.4
20260509232504 18 28 3.2 17.7 0.00 0.00 0.00 29 1013.2
20260509232006 18 342 9.7 19.3 0.00 0.00 0.00 29 1013.1
20260509231505 18 320 9.7 20.9 0.00 0.00 0.00 23 1013.3
20260509231007 18 314 14.5 20.9 0.00 0.00 0.00 23 1013.5
20260509230506 18 316 9.7 17.7 0.00 0.00 0.00 22 1013.3
20260509230005 18 315 8.0 12.9 0.00 0.00 0.00 25 1003.8
20260509225505 18 317 4.8 9.7 0.00 0.00 0.00 24 1013.4
20260509225007 18 15 3.2 14.5 0.00 0.00 0.00 25 1013.2
20260509224505 19 15 4.8 19.3 0.00 0.00 0.00 27 1013.1
20260509224503 19 15 3.2 19.3 0.00 0.00 0.00 27 1003.4
20260509224006 19 24 14.5 19.3 0.00 0.00 0.00 26 1013.1
20260509223504 19 355 8.0 19.3 0.00 0.00 0.00 27 1012.9
20260509223006 18 26 8.0 17.7 0.00 0.00 0.00 27 1012.9
20260509223003 18 26 8.0 17.7 0.00 0.00 0.00 27 1003.1
20260509222505 18 30 12.9 17.7 0.00 0.00 0.00 26 1013.0
20260509222005 18 355 8.0 16.1 0.00 0.00 0.00 27 1012.9
20260509221506 18 35 6.4 11.3 0.00 0.00 0.00 26 1013.0
20260509221504 18 35 4.8 11.3 0.00 0.00 0.00 26 1003.2
20260509221005 18 55 8.0 20.9 0.00 0.00 0.00 27 1012.9
20260509220506 19 9 11.3 20.9 0.00 0.00 0.00 25 1013.0
20260509220004 19 40 12.9 22.5 0.00 0.00 0.00 26 1003.0
20260509215505 20 44 16.1 22.5 0.00 0.00 0.00 25 1012.8
20260509215006 19 5 4.8 19.3 0.00 0.00 0.00 28 1013.1
20260509214505 19 288 11.3 22.5 0.00 0.00 0.00 24 1013.1
20260509214005 18 262 12.9 25.7 0.00 0.00 0.00 27 1013.2
20260509213506 18 308 16.1 37.0 0.00 0.00 0.00 24 1013.2
20260509213007 18 275 17.7 37.0 0.00 0.00 0.00 24 1013.2
20260509213003 18 275 17.7 37.0 0.00 0.00 0.00 24 1003.5
20260509212505 18 26 8.0 27.4 0.00 0.00 0.00 23 1013.3
20260509212006 19 27 16.1 22.5 0.00 0.00 0.00 27 1013.5
20260509211505 19 355 6.4 20.9 0.00 0.00 0.00 29 1013.6
20260509211503 19 355 4.8 20.9 0.00 0.00 0.00 29 1003.8
20260509210505 20 13 9.7 20.9 0.00 0.00 0.00 28 1013.5
20260509210009 20 311 8.0 17.7 0.00 0.00 0.00 28 1013.3
20260509210004 20 311 6.4 17.7 0.00 0.00 0.00 28 1003.6
20260509205505 20 47 6.4 17.7 0.00 0.00 0.00 25 1013.4
20260509205006 20 19 8.0 17.7 0.00 0.00 0.00 26 1013.4
20260509204506 20 351 6.4 16.1 0.00 0.00 0.00 26 1013.3
20260509204503 20 351 4.8 16.1 0.00 0.00 0.00 26 1003.6
20260509204007 20 360 8.0 25.7 0.00 0.00 0.00 29 1013.3
20260509203505 20 237 11.3 25.7 0.00 0.00 0.00 26 1013.5
20260509203006 20 22 12.9 20.9 0.00 0.00 0.00 28 1013.5
20260509203003 20 22 12.9 20.9 0.00 0.00 0.00 28 1003.9
20260509202505 20 11 11.3 30.6 0.00 0.00 0.00 27 1013.5
20260509202007 20 43 20.9 30.6 0.00 0.00 0.00 28 1013.6
20260509201507 20 27 12.9 29.0 0.00 0.00 0.00 28 1013.6
20260509201503 20 27 12.9 29.0 0.00 0.00 0.00 28 1004.0
20260509201008 20 309 8.0 30.6 0.00 0.00 0.00 26 1013.6
20260509200505 20 5 17.7 30.6 0.00 0.00 0.00 29 1013.7
20260509200007 20 21 12.9 30.6 0.00 0.00 0.00 26 1013.7
20260509200004 20 21 12.9 30.6 0.00 0.00 0.00 26 1004.1
20260509195504 20 26 11.3 30.6 0.00 0.00 0.00 24 1013.8
20260509195006 20 350 11.3 27.4 0.00 0.00 0.00 28 1013.8
20260509194505 20 346 8.0 27.4 0.00 0.00 0.00 25 1013.8
20260509194007 20 347 11.3 20.9 0.00 0.00 0.00 25 1013.7
20260509193505 20 28 8.0 17.7 0.00 0.00 0.00 25 1013.6
20260509193006 20 324 6.4 27.4 0.00 0.00 0.00 23 1013.8
20260509193003 20 324 6.4 27.4 0.00 0.00 0.00 23 1004.3
20260509192505 20 317 9.7 27.4 0.00 0.00 0.00 26 1013.7